AirNav   Air Wisconsin Airman Trainee
 
 289 users online  

1U9 Pine Airport
Pine, Idaho, USA

GOING TO PINE?


FAA INFORMATION EFFECTIVE 23 MAY 2019

Location

FAA Identifier: 1U9
Lat/Long: 43-27-58.5000N / 115-18-36.1000W
43-27.975000N / 115-18.601667W
43.4662500 / -115.3100278
(estimated)
Elevation: 4232 ft. / 1290 m (estimated)
Variation: 17E (1985)
From city: 1 mile S of PINE, ID
Time zone: UTC -6 (UTC -7 during Standard Time)
Zip code: 83647

Airport Operations

Airport use: Open to the public
Activation date: 05/1950
Control tower: no
ARTCC: SALT LAKE CITY CENTER
FSS: BOISE FLIGHT SERVICE STATION
NOTAMs facility: BOI (NOTAM-D service available)
Attendance: UNATNDD
Wind indicator: yes
Segmented circle: yes

Airport Communications

CTAF: 122.9

Nearby radio navigation aids

VOR radial/distance  VOR name  Freq  Var
LIAr017/(35.4)LIBERATOR VOR114.9018E
BOIr081/38.7BOISE VORTAC113.3017E

Airport Services

Parking: tiedowns
Airframe service: NONE
Powerplant service: NONE
Bottled oxygen: NONE
Bulk oxygen: NONE

Runway Information

Runway 16/34

Dimensions: 2300 x 125 ft. / 701 x 38 m
Surface: turf, in fair condition
Runway edge markings: 16/34 EDGES & THRS MARKED WITH WHITE ROCKS.
RUNWAY 16  RUNWAY 34
Latitude: 43-28.163893N43-27.785953N
Longitude: 115-18.618483W115-18.585762W
Elevation: 4222.0 ft.4206.0 ft.
Traffic pattern: leftright
Runway heading: 159 magnetic, 176 true339 magnetic, 356 true
Obstructions: 17 ft. road, 115 ft. right of centerline
RY 16 +750 FT TIMBERED RIDGE AT 2000 FT ON CNTRLN; +50 FT TREE AT 300 FT, 80 FT LEFT; +50 FT TREES AT 350 FT, ON CNTRLN; +40 FT TREE AT 120 FT, 70 FT RIGHT.
24 ft. tree, 470 ft. from runway, 10 ft. left of centerline, 19:1 slope to clear

Airport Ownership and Management from official FAA records

Ownership: Publicly-owned
Owner: STATE OF ID, ITD DIV OF AERO
P.O. BOX 7129
BOISE, ID 83707-1129
Phone 208-334-8775
Manager: DIV ADMIN
P.O. BOX 7129
BOISE, ID 83707-1129
Phone 208-334-8775

Airport Operational Statistics

Aircraft operations: avg 20/week *
98% transient general aviation
2% military
* for 12-month period ending 30 June 2017

Additional Remarks

NO WINTER MAINTENANCE.
NO LINE OF SIGHT BETWEEN RWY ENDS.
RECOMMEND LAND RY 34 & TAKEOFF R\Y 16 WHEN WIND CONDITIONS PERMIT.
RY HAS SIDESLOPE, DOWNHILL FM WEST TO EAST.
FOR CD CTC BIG SKY APCH AT 208-364-5860/5861.

Instrument Procedures

There are no published instrument procedures at 1U9.

Some nearby airports with instrument procedures:

U76 - Mountain Home Municipal Airport (27 nm SW)
KMUO - Mountain Home Air Force Base (35 nm SW)
KBOI - Boise Air Terminal/Gowen Field (40 nm W)
KGNG - Gooding Municipal Airport (41 nm SE)
KSUN - Friedman Memorial Airport (44 nm E)
 
Loc | Ops | Rwys | IFR | FBO | Links
Com | Nav | Svcs | Stats | Notes
Area around 1U9 (Pine Airport)
 
Road maps at: MapQuest Bing Google
 
Aerial photo
WARNING: Photo may not be current or correct
Aerial photo of 1U9 (Pine Airport)
Photo by Raul Agosto
Photo taken 31-May-2014
looking northwest.

Do you have a better or more recent aerial photo of Pine Airport that you would like to share? If so, please send us your photo.

 
Sectional chart

 
Airport distance calculator
Flying to Pine Airport? Find the distance to fly.

From to 1U9

Sunrise and sunset
Times for 23-May-2019
 Local
(UTC-6)
 Zulu
(UTC)
Morning civil twilight05:3611:36
Sunrise06:1012:10
Sunset21:0603:06
Evening civil twilight21:4003:40

Current date and time
Zulu (UTC)  23-May-2019 07:24:09
Local (UTC-6)  23-May-2019 01:24:09
 
METAR
U76 
27nm SW 
SuperAWOS
230655Z AUTO 00000KT 10SM 11/08 A2985
KMUO 
36nm SW 
230658Z AUTO 33005KT 10SM OVC070 08/08 A2986 RMK AO2 SLP110 T00810081 401480060 $
KBOI 
41nm W 
230653Z 00000KT 10SM BKN090 BKN120 10/08 A2989 RMK AO2 SLP115 T01000083 401560083
KSUN 
45nm E 
230655Z AUTO 31006KT 10SM OVC120 05/01 A2994 RMK AO2
KSNT 
45nm N 
230648Z AUTO 08003KT 04/M01 A2999 RMK AO1 SLP106 T00391011 400940017
TAF
KMUO 
36nm SW 
230200Z 2302/2408 VRB06KT 9999 VCSH FEW030 BKN060 OVC080 610906 QNH2984INS BECMG 2305/2306 32009KT 9999 NSW SCT060 BKN070 QNH2987INS BECMG 2318/2319 32012G20KT 9999 VCSH SCT060 BKN080 OVC100 610905 QNH2982INS BECMG 2321/2322 32015G25KT 8000 -SHRA SCT050 BKN070 OVC090 610907 510008 QNH2980INS BECMG 2402/2403 31012KT 9999 VCSH SCT080 BKN100 610905 QNH2978INS BECMG 2404/2405 31009KT 9999 NSW SCT100 QNH2975INS TX18/2320Z TN07/2312Z
KBOI 
41nm W 
230520Z 2306/2406 VRB06KT P6SM SCT050 OVC100 FM231800 30012G18KT P6SM SCT050 FM232100 VRB06KT P6SM VCSH BKN050 TEMPO 2321/2401 VRB10G20KT -SHRA OVC050
NOTAMs
Click for the latest NOTAMs
NOTAMs are issued by the DoD/FAA and will open in a separate window not controlled by AirNav.

 

 
 

Would you like to see your business listed on this page?

 If your business provides an interesting product or service to pilots, flight crews, aircraft, or users of the Pine Airport, you should consider listing it here.  To start the listing process, click on the button below
 
Add a business
 

Other Pages about Pine Airport

Update a link
 
Copyright © AirNav, LLC. All rights reserved. Privacy Policy  Contact